📊 Raw Sensor Data
Showing records 51026 to 51050 of 85,143 total
| ID | Distance (ft) | Battery V | Battery A | Int Temp (°F) | Int Humid (%) | Ext Temp (°F) | Solar V | RSSI | SNR | Time Stamp |
|---|---|---|---|---|---|---|---|---|---|---|
| 34130 | 15.2 | 4.11 | 39 | 56 | 39 | 55 | 4.50 | -74 | 8 | 03/05/2025 12:00 PM |
| 34129 | 15.2 | 4.14 | 5 | 56 | 39 | 55 | 5.10 | -75 | 8 | 03/05/2025 11:45 AM |
| 34128 | 15.1 | 4.00 | 5 | 57 | 38 | 56 | 5.10 | -73 | 8 | 03/05/2025 11:30 AM |
| 34127 | 15.2 | 4.00 | 0 | 57 | 38 | 55 | 5.10 | -76 | 7 | 03/05/2025 11:15 AM |
| 34126 | 15.2 | 4.04 | 5 | 57 | 38 | 56 | 5.10 | -76 | 8 | 03/05/2025 11:00 AM |
| 34125 | 15.2 | 4.00 | 0 | 56 | 38 | 55 | 5.10 | -76 | 8 | 03/05/2025 10:45 AM |
| 34124 | 15.2 | 4.14 | 0 | 56 | 37 | 56 | 5.10 | -76 | 7 | 03/05/2025 10:30 AM |
| 34123 | 15.2 | 4.00 | 5 | 56 | 37 | 55 | 5.10 | -75 | 8 | 03/05/2025 10:15 AM |
| 34122 | 15.2 | 4.00 | 5 | 55 | 37 | 55 | 5.10 | -77 | 8 | 03/05/2025 10:00 AM |
| 34121 | 15.2 | 4.00 | 5 | 54 | 37 | 54 | 5.10 | -77 | 7 | 03/05/2025 09:45 AM |
| 34120 | 15.2 | 4.09 | 67 | 53 | 37 | 53 | 4.50 | -77 | 8 | 03/05/2025 09:30 AM |
| 34119 | 15.2 | 4.04 | 44 | 52 | 37 | 52 | 4.50 | -76 | 8 | 03/05/2025 09:15 AM |
| 34118 | 15.2 | 4.03 | 42 | 51 | 37 | 51 | 4.50 | -76 | 8 | 03/05/2025 09:00 AM |
| 34117 | 15.2 | 4.00 | 20 | 51 | 38 | 51 | 4.60 | -77 | 8 | 03/05/2025 08:45 AM |
| 34116 | 15.2 | 4.03 | 0 | 50 | 38 | 50 | 4.50 | -77 | 8 | 03/05/2025 08:30 AM |
| 34115 | 15.2 | 4.00 | 9 | 50 | 38 | 50 | 4.50 | -76 | 8 | 03/05/2025 08:15 AM |
| 34114 | 15.1 | 3.94 | 5 | 50 | 38 | 50 | 4.50 | -77 | 7 | 03/05/2025 08:00 AM |
| 34113 | 15.1 | 3.98 | 0 | 49 | 38 | 50 | 4.50 | -77 | 7 | 03/05/2025 07:45 AM |
| 34112 | 15.1 | 3.92 | 0 | 49 | 38 | 50 | 4.50 | -76 | 8 | 03/05/2025 07:30 AM |
| 34111 | 15.1 | 3.91 | -6 | 49 | 38 | 49 | 4.50 | -76 | 8 | 03/05/2025 07:15 AM |
| 34110 | 15.1 | 3.90 | -16 | 49 | 38 | 49 | 4.50 | -76 | 8 | 03/05/2025 07:00 AM |
| 34109 | 15.1 | 3.90 | -30 | 49 | 38 | 49 | 3.20 | -77 | 8 | 03/05/2025 06:45 AM |
| 34108 | 15.1 | 3.91 | -5 | 49 | 38 | 49 | 0.60 | -77 | 8 | 03/05/2025 06:30 AM |
| 34107 | 15.1 | 3.97 | -5 | 48 | 38 | 49 | 0.00 | -76 | 8 | 03/05/2025 06:15 AM |
| 34106 | 15.1 | 3.92 | -5 | 48 | 38 | 49 | 0.00 | -77 | 8 | 03/05/2025 06:00 AM |